Hourly Data Report for September 13, 2020

SHEARWATER RCS
NOVA SCOTIA
Current Station Operator: ECCC - MSC

44°37'47.000" N
63°30'48.000" W
24.00 m
8205092
71264
AAW

Download Data

Hourly Data (September 2020)
Hourly Data Report for September 13, 2020
TIME Temp Definition
°C
Dew Point Definition
°C
Rel Hum Definition
%
Wind Dir Definition
10's deg

Wind Spd Definition
km/h
Visibility Definition
km
Stn Press Definition
kPa
Hmdx Definition


Wind Chill Definition


Weather Definition


00:00 11.1 9.8 92   0   102.39     LegendNANA
01:00 10.6 9.1 91   0   102.38     LegendNANA
02:00 10.0 8.9 93   0   102.37     LegendNANA
03:00 9.9 8.7 93 0 1   102.36     LegendNANA
04:00 10.6 9.7 94   0   102.36     LegendNANA
05:00 10.7 9.8 95   0   102.35     LegendNANA
06:00 10.3 9.3 94 34 3   102.39     LegendNANA
07:00 11.8 10.7 93 0 1   102.40     LegendNANA
08:00 15.1 11.2 77 18 1   102.38     LegendNANA
09:00 16.2 11.0 71 16 6   102.38     LegendNANA
10:00 17.4 10.9 66 17 11   102.35     LegendNANA
11:00 17.9 10.6 63 15 9   102.30     LegendNANA
12:00 18.3 10.2 59 17 17   102.24     LegendNANA
13:00 18.2 11.4 65 17 21   102.14     LegendNANA
14:00 18.6 12.8 69 16 19   102.01     LegendNANA
15:00 18.6 12.9 70 16 20   101.95     LegendNANA
16:00 18.3 13.8 75 16 22   101.86     LegendNANA
17:00 18.1 14.8 81 16 15   101.77     LegendNANA
18:00 17.5 15.2 86 16 13   101.70     LegendNANA
19:00 17.8 15.9 88 15 12   101.61     LegendNANA
20:00 18.1 16.2 88 16 15   101.58     LegendNANA
21:00 18.1 16.1 88 17 16   101.51     LegendNANA
22:00 18.3 16.4 89 18 17   101.42     LegendNANA
23:00 18.0 16.9 93 18 16   101.32     LegendNANA

Notes on Data Quality.

Legend

  • E = Estimated
  • M = Missing
  • NA = Not Available*
  • [empty] = Indicates an unobserved value
Date modified: